Hourly Data Report for August 19, 2006

TORONTO CITY
ONTARIO

43°40'00.000" N
79°24'00.000" W
112.50 m
6158355
71508
XTO

Download Data

Hourly Data (August 2006)
Hourly Data Report for August 19, 2006
TIME
LST
Temp Definition
°C
Dew Point Definition
°C
Rel Hum Definition
%
Precip. Amount Definition
mm

Wind Dir Definition
10's deg

Wind Spd Definition
km/h
Visibility Definition
km
Stn Press Definition
kPa
Hmdx Definition


Wind Chill Definition


Weather Definition


00:00 23.2 15.7 63   LegendMM LegendMM   100.21 28   LegendNANA
01:00 23.2 15.7 63   LegendMM LegendMM   100.17 28   LegendNANA
02:00 23.3 15.6 62   LegendMM LegendMM   100.13 28   LegendNANA
03:00 23.3 15.8 63   LegendMM LegendMM   100.09 28   LegendNANA
04:00 23.0 16.1 65   LegendMM LegendMM   100.07 28   LegendNANA
05:00 23.2 15.5 62   LegendMM LegendMM   100.08 27   LegendNANA
06:00 22.9 16.0 65   LegendMM LegendMM   100.08 28   LegendNANA
07:00 22.7 16.4 68   LegendMM LegendMM   100.08 28   LegendNANA
08:00 22.9 17.0 69   LegendMM LegendMM   100.03 28   LegendNANA
09:00 23.1 18.9 77   LegendMM LegendMM   99.99 30   LegendNANA
10:00 23.4 19.1 77   LegendMM LegendMM   99.98 30   LegendNANA
11:00 24.6 20.1 76   LegendMM LegendMM   99.92 32   LegendNANA
12:00 24.1 20.2 79   LegendMM LegendMM   99.82 32   LegendNANA
13:00 23.9 20.4 81   LegendMM LegendMM   99.76 32   LegendNANA
14:00 23.3 20.4 84   LegendMM LegendMM   99.70 31   LegendNANA
15:00 23.7 20.3 81   LegendMM LegendMM   99.61 32   LegendNANA
16:00 23.5 20.6 84   LegendMM LegendMM   99.57 32   LegendNANA
17:00 22.6 20.6 88   LegendMM LegendMM   99.57 31   LegendNANA
18:00 21.9 21.0 95   LegendMM LegendMM   99.50 30   LegendNANA
19:00 21.8 20.8 94   LegendMM LegendMM   99.48 30   LegendNANA
20:00 21.8 20.6 93   LegendMM LegendMM   99.47 30   LegendNANA
21:00 21.6 20.5 93   LegendMM LegendMM   99.49 30   LegendNANA
22:00 21.3 20.3 94   LegendMM LegendMM   99.46 29   LegendNANA
23:00 21.3 20.0 92   LegendMM LegendMM   99.47 29   LegendNANA

Notes on Data Quality.

Legend

  • E = Estimated
  • M = Missing
  • NA = Not Available*
  • [empty] = Indicates an unobserved value
Date modified: